sat.trackr.live / text

‹ back to catalog

STARLINK-34879

NORAD 65377 · 2025-190AC

PAYLOAD ACTIVE UNKNOWN

§ Identity

Operator
Country
US
Launch date
2025-08-28
Launch site
AFETR
Launch vehicle
Mass (kg)
RCS (m²)

Purposes: comms

External: N2YO · Heavens-Above · Gunter

§ Orbital elements

Epoch: 2026-09-20T11:57:21.513024Z

Period
93.85 min
Inclination
53.1610°
Eccentricity
0.0001446
Mean motion
15.34414864 rev/d
Perigee alt
461.7 km
Apogee alt
463.6 km
Semi-major
6,840.8 km
B*
1.2973e-3
RAAN
341.7233°
Arg perigee
91.7064°
Mean anomaly
268.4104°
Rev number
5,960

§ Raw data

STARLINK-348791 65377U 25190AC  26263.49816566  .00043731  00000+0  12973-2 0  99902 65377  53.1610 341.7233 0001446  91.7064 268.4104 15.34414864 59606

JSON: /api/v1/satellites/65377 · /tle

For live sub-satellite position, see the globe view (requires WebGL).

§ Visibility from observer

Set your observer location to see the next 7 days of passes ≥ 10°. The values pass through the URL so the page stays shareable.

No JS? Fill the form by hand. The geolocation button needs JavaScript.